Location: Airlie Beach - Cannonvale QLD, Australia
(20.2768°S, 148.7558°E)
Time: 00:11:43
(UTC+10:00)

Hubble Space Telescope - Pass Details

Date: 25 May 2026
Orbit: 473 x 475 km, 28.5° (Epoch: 5 June)

Event Time Altitude Azimuth Distance (km) Brightness Sun altitude
Rises 18:54:34 0° 243° (WSW) 2,516 4.9 -18.9°
Reaches altitude 10° 18:56:58 10° 231° (SW) 1,638 3.7 -19.4°
Enters shadow 18:59:51 28° 183° (S) 923 1.8 -20.1°
